Starlink 30378

operational
NORAD ID: 57787 Int'l Des: 2023-134 Owner: SPXS Country: US Constellation: starlink
LEOCIRCULAR

About Starlink 30378

Description loading...

Live Position

Loading 3D Globe...

Upcoming Passes

Altitude History

Altitude vs Time

uPlot chart will show altitude changes over time

Two-Line Element Set

1 57787U 23134S 25352.23949898 -.00000562 00000-0 -26543-4 0 9995
2 57787 43.0037 279.6887 0000862 268.7296 91.3448 15.02535114127226
Epoch: Dec 18, 2025 • Age: 43 hours

Current Status

Altitude 560.9 km
Velocity 7.58 km/s
Sub-Earth Point -12.09°S, 156.68°E
Launch Date Sep 4, 2023
Age 2.2 years
Type internet

Technical Details

Classification Payload
Mass 730.00 kg
Dry Mass 700.00 kg
Total Mass 730.00 kg
Length 0.30 m
Diameter 4.10 m
Span 29.00 m
Shape Box + pan
Manufacturer SPXS
Bus Type Starlink V2M
Phase Status In Orbit
Owner/State SPXS/US

Large Constellations

Loading constellations...